Location: Baix
(44.7118°N, 4.7648°E)
Time: 22:04:03
(UTC+00:00)

A-11 Canister half - All Passes

Search period start: 25 November 2020 00:00
Search period end: 05 December 2020 00:00
Orbit: 1525 x 1683 km, 47.3° (Epoch: 25 November)

Date Brightness Start Highest point End Pass type
(mag) Time Alt. Az. Time Alt. Az. Time Alt. Az.
25 Nov - 04:14:03 10° SSE 04:20:40 20° SE 04:27:12 10° E visible
25 Nov - 06:14:24 10° SW 06:24:14 58° SE 06:33:52 10° ENE visible
25 Nov - 08:19:06 10° WSW 08:29:15 83° NNW 08:39:04 10° ENE daylight
25 Nov - 10:24:53 10° WNW 10:34:54 82° NNE 10:44:32 10° E daylight
25 Nov - 12:30:19 10° WNW 12:39:48 58° SW 12:48:57 10° SE daylight
25 Nov - 14:37:13 10° W 14:43:10 19° SW 14:49:02 10° SSW daylight
26 Nov - 03:52:47 10° SSE 03:59:04 19° SE 04:05:18 10° E visible
26 Nov - 05:52:48 10° SW 06:02:35 56° SE 06:12:12 10° ENE visible
26 Nov - 07:57:23 10° WSW 08:07:33 84° NNW 08:17:25 10° ENE daylight
26 Nov - 10:03:10 10° WNW 10:13:13 81° N 10:22:53 10° E daylight
26 Nov - 12:08:37 10° WNW 12:18:10 60° SW 12:27:24 10° SE daylight
26 Nov - 14:15:18 10° W 14:21:37 20° SW 14:27:50 10° SSW daylight
27 Nov - 03:31:34 10° SSE 03:37:30 17° SE 03:43:23 10° E visible
27 Nov - 05:31:13 10° SW 05:40:57 54° SE 05:50:31 10° ENE visible
27 Nov - 07:35:41 10° WSW 07:45:51 85° NNW 07:55:45 10° ENE daylight
27 Nov - 09:41:28 10° WNW 09:51:31 81° N 10:01:13 10° E daylight
27 Nov - 11:46:54 10° WNW 11:56:33 62° SSW 12:05:50 10° SE daylight
27 Nov - 13:53:26 10° W 14:00:04 21° SW 14:06:34 10° S daylight
28 Nov - 03:10:25 10° SSE 03:15:56 16° SE 03:21:24 10° E visible
28 Nov - 05:09:37 10° SW 05:19:18 52° SE 05:28:50 10° ENE visible
28 Nov - 07:13:58 10° WSW 07:24:09 86° NNW 07:34:04 10° ENE daylight
28 Nov - 09:19:44 10° W 09:29:49 80° N 09:39:33 10° E daylight
28 Nov - 11:25:12 10° WNW 11:34:55 64° SSW 11:44:16 10° SE daylight
28 Nov - 13:31:35 10° W 13:38:30 23° SW 13:45:18 10° S daylight
29 Nov - 02:49:19 10° SSE 02:54:21 15° ESE 02:59:23 10° E visible
29 Nov - 04:48:02 10° SSW 04:57:40 50° SE 05:07:09 10° ENE visible
29 Nov - 06:52:15 10° WSW 07:02:28 87° NNW 07:12:24 10° ENE daylight
29 Nov - 08:58:00 10° W 09:08:08 79° N 09:17:53 10° E daylight
29 Nov - 11:03:30 10° WNW 11:13:16 66° SSW 11:22:41 10° SE daylight
29 Nov - 13:09:45 10° W 13:16:57 24° SW 13:23:59 10° S daylight
30 Nov - 02:28:17 10° SSE 02:32:47 14° ESE 02:37:16 10° E visible
30 Nov - 04:26:29 10° SSW 04:36:02 48° SE 04:45:28 10° ENE visible
30 Nov - 06:30:33 10° WSW 06:40:46 89° NNW 06:50:45 10° ENE daylight
30 Nov - 08:36:18 10° W 08:46:25 79° N 08:56:12 10° E daylight
30 Nov - 10:41:47 10° WNW 10:51:38 69° SSW 11:01:06 10° SE daylight
30 Nov - 12:47:55 10° W 12:55:22 26° SW 13:02:40 10° S daylight
01 Dec - 02:07:22 10° SE 02:11:14 13° ESE 02:15:05 10° E visible
01 Dec - 04:04:55 10° SSW 04:14:24 46° SE 04:23:46 10° ENE visible
01 Dec - 06:08:51 10° WSW 06:19:04 90° WNW 06:29:04 10° ENE visible
01 Dec - 08:14:34 10° W 08:24:43 78° N 08:34:32 10° E daylight
01 Dec - 10:20:06 10° WNW 10:29:59 71° SSW 10:39:30 10° SE daylight
01 Dec - 12:26:07 10° WNW 12:33:48 27° SW 12:41:18 10° S daylight
02 Dec - 01:46:38 10° SE 01:49:40 12° ESE 01:52:42 10° ESE visible
02 Dec - 03:43:22 10° SSW 03:52:45 44° SE 04:02:04 10° ENE visible
02 Dec - 05:47:09 10° WSW 05:57:23 89° SSE 06:07:24 10° ENE visible
02 Dec - 07:52:50 10° W 08:03:00 78° N 08:12:51 10° E daylight
02 Dec - 09:58:23 10° WNW 10:08:20 73° SSW 10:17:54 10° SE daylight
02 Dec - 12:04:19 10° WNW 12:12:14 29° SW 12:19:56 10° S daylight
03 Dec - 01:26:18 10° SE 01:28:07 11° ESE 01:29:55 10° ESE visible
03 Dec - 03:21:51 10° SSW 03:31:08 42° SE 03:40:21 10° ENE visible
03 Dec - 05:25:28 10° WSW 05:35:41 87° SSE 05:45:44 10° ENE visible
03 Dec - 07:31:08 10° W 07:41:18 77° N 07:51:11 10° E daylight
03 Dec - 09:36:41 10° WNW 09:46:40 75° SSW 09:56:17 10° SE daylight
03 Dec - 11:42:32 10° WNW 11:50:38 30° SW 11:58:33 10° S daylight
04 Dec - 03:00:19 10° SSW 03:09:30 41° SE 03:18:38 10° ENE visible
04 Dec - 05:03:46 10° WSW 05:13:59 85° SSE 05:24:03 10° ENE visible
04 Dec - 07:09:24 10° W 07:19:35 77° N 07:29:30 10° E daylight
04 Dec - 09:14:58 10° WNW 09:25:01 77° SSW 09:34:41 10° ESE daylight
04 Dec - 11:20:46 10° WNW 11:29:04 32° SW 11:37:09 10° S daylight
